Weather History for KGRI - March, 2013

Change the Weather History Date:

Sunday, March 3, 2013

  Actual Average Record
Temperature  
Mean Temperature 33 °F 34 °F  
Max Temperature 42 °F 45 °F 75 °F (1905)
Min Temperature 24 °F 24 °F -16 °F (1960)
Degree Days  
Heating Degree Days 32 31  
Month to date heating degree days 115 93  
Since 1 July heating degree days 4584 4854  
Cooling Degree Days 0 0  
Month to date cooling degree days 0 0  
Year to date cooling degree days 0 0  
Moisture  
Dew Point 31 °F    
Average Humidity 88    
Maximum Humidity 100    
Minimum Humidity 76    
Precipitation  
Precipitation 0.00 in 0.04 in 0.71 in (1979)
Month to date precipitation 0.00 0.11  
Year to date precipitation 1.13 1.32  
Snow  
Snow 0.00 in 0.20 in 10.20 in (1979)
Month to date snowfall 0.0 0.6  
Since 1 July snowfall 21.4 22.7  
Snow Depth 3.00 in    
Sea Level Pressure  
Sea Level Pressure 29.81 in    
Wind  
Wind Speed 9 mph (SSE)    
Max Wind Speed 17 mph    
Max Gust Speed 23 mph    
Visibility 9 miles    
Events      
T = Trace of Precipitation, MM = Missing Value Source: NWS Daily Summary

Daily Weather History Graph

Daily Weather History Graph

Search for Another Location

Airport or City:

Trip Planner

Search our weather history database for the weather conditions in past years. The results will help you decide how hot, cold, wet, or windy it might be!

Date:

Astronomy

Mar. 03, 2013 Rise Set
Actual Time 7:03 AM CST 6:26 PM CST
Civil Twilight 6:36 AM CST 6:54 PM CST
Nautical Twilight 6:04 AM CST 7:26 PM CST
Astronomical Twilight 5:32 AM CST 7:58 PM CST
Moon 12:09 AM CST (3/3) 10:17 AM CST (3/3)
Length of Visible Light 12h 18m
Length of Day
11h 23m
Waning Gibbous, 63% of the Moon is Illuminated
Mar 3
Waning Gibbous
Mar 4
Last Quarter
Mar 11
New
Mar 19
First Quarter
Mar 27
Full

Hourly Weather History & Observations

Time (CST) Temp. Windchill Dew Point Humidity Pressure Visibility Wind Dir Wind Speed Gust Speed Precip Events Conditions
12:53 AM 30.9 °F 22.2 °F 28.9 °F 92% 30.03 in 9.0 mi SSW 10.4 mph - N/A   Clear
1:53 AM 32.0 °F 24.8 °F 28.9 °F 88% 30.01 in 10.0 mi SSW 8.1 mph - N/A   Clear
2:53 AM 30.9 °F 26.2 °F 28.9 °F 92% 29.98 in 9.0 mi SSW 4.6 mph - N/A   Clear
3:53 AM 28.0 °F 24.2 °F 27.0 °F 96% 29.95 in 8.0 mi SSE 3.5 mph - N/A   Clear
4:53 AM 28.9 °F 25.2 °F 28.0 °F 96% 29.93 in 7.0 mi SSE 3.5 mph - N/A   Clear
5:53 AM 26.6 °F 22.6 °F 24.8 °F 93% 29.87 in 6.0 mi ENE 3.5 mph - N/A   Clear
6:53 AM 26.1 °F - 23.0 °F 88% 29.93 in 5.0 mi Calm Calm - N/A   Clear
7:53 AM 28.0 °F 24.2 °F 27.0 °F 96% 29.91 in 5.0 mi SSE 3.5 mph - N/A   Clear
8:53 AM 30.9 °F 25.2 °F 28.9 °F 92% 29.90 in 6.0 mi SSE 5.8 mph - N/A   Clear
9:53 AM 34.0 °F 28.0 °F 30.0 °F 85% 29.87 in 8.0 mi SE 6.9 mph - N/A   Clear
10:53 AM 37.9 °F 32.7 °F 32.0 °F 79% 29.86 in 10.0 mi SSE 6.9 mph - N/A   Clear
11:53 AM 39.0 °F 33.4 °F 33.1 °F 79% 29.82 in 10.0 mi ESE 8.1 mph - N/A   Clear
12:53 PM 39.9 °F 33.4 °F 34.0 °F 79% 29.80 in 10.0 mi SE 10.4 mph - N/A   Clear
1:53 PM 41.0 °F 33.9 °F 35.1 °F 79% 29.75 in 10.0 mi SE 12.7 mph - N/A   Clear
2:53 PM 39.9 °F 32.1 °F 35.1 °F 83% 29.73 in 9.0 mi SE 13.8 mph - N/A   Partly Cloudy
3:53 PM 41.0 °F 33.5 °F 35.6 °F 81% 29.67 in 10.0 mi SE 13.8 mph - N/A   Scattered Clouds
4:53 PM 42.8 °F 37.0 °F 35.6 °F 76% 29.65 in 10.0 mi SE 10.4 mph - N/A   Clear
5:53 PM 42.1 °F 39.2 °F 36.0 °F 79% 29.71 in 10.0 mi ESE 4.6 mph - N/A   Clear
6:53 PM 39.0 °F 34.0 °F 35.1 °F 86% 29.73 in 10.0 mi SE 6.9 mph - N/A   Mostly Cloudy
7:53 PM 39.0 °F 30.6 °F 34.0 °F 82% 29.71 in 10.0 mi SSE 15.0 mph - N/A   Clear
8:53 PM 37.9 °F 28.9 °F 34.0 °F 86% 29.68 in 10.0 mi SSE 16.1 mph - N/A   Clear
9:53 PM 37.0 °F 28.5 °F 33.1 °F 86% 29.67 in 10.0 mi SSE 13.8 mph - N/A   Clear
10:53 PM 36.0 °F 27.1 °F 33.1 °F 89% 29.66 in 10.0 mi SSE 13.8 mph - N/A   Clear
11:53 PM 35.1 °F 28.6 °F 30.9 °F 85% 29.67 in 10.0 mi SSE 8.1 mph - N/A   Clear